Location: Newark
(44.3248°N, 23.7839°E)
Time: 18:54:35
(UTC+00:00)

RS-15 - Visible Passes

Search period start: 22 April 2024 00:00
Search period end: 02 May 2024 00:00
Orbit: 1895 x 2150 km, 64.8° (Epoch: 21 April)

Date Brightness Start Highest point End Pass type
(mag) Time Alt. Az. Time Alt. Az. Time Alt. Az.
22 Apr 8.9 02:00:53 10° NW 02:11:45 50° NE 02:22:15 10° ESE visible
22 Apr 8.0 18:36:32 10° SSW 18:48:33 82° ESE 19:00:05 10° NE visible
22 Apr 9.2 20:51:22 10° W 21:02:14 40° NNW 21:12:43 10° NE visible
22 Apr 9.7 23:09:40 10° NW 23:18:51 26° N 23:27:46 10° NE visible
23 Apr 9.1 01:24:42 10° NW 01:35:15 42° NE 01:45:27 10° ESE visible
23 Apr 8.1 18:00:46 10° SSW 18:12:36 67° ESE 18:23:55 10° NE visible
23 Apr 8.9 20:14:22 10° WSW 20:25:41 47° NW 20:36:32 10° NE visible
23 Apr 9.7 22:32:33 10° WNW 22:41:51 26° N 22:50:51 10° NE visible
24 Apr 9.3 00:48:26 10° NW 00:58:37 36° NNE 01:08:28 10° E visible
24 Apr 8.7 19:37:35 10° WSW 19:49:13 56° NW 20:00:25 10° NE visible
24 Apr 9.7 21:55:20 10° WNW 22:04:52 28° NNW 22:14:06 10° NE visible
25 Apr 9.5 00:12:02 10° NW 00:21:52 32° NNE 00:31:23 10° E visible
25 Apr 8.2 02:25:12 10° NW 02:36:26 76° NE 02:47:20 10° SE visible
25 Apr 8.5 19:01:00 10° SW 19:12:54 67° NW 19:24:18 10° NE visible
25 Apr 9.6 21:18:03 10° WNW 21:27:57 30° NNW 21:37:31 10° NE visible
25 Apr 9.6 23:35:30 10° NW 23:45:01 29° NNE 23:54:12 10° ENE visible
26 Apr 8.5 01:49:06 10° NW 02:00:13 62° NE 02:10:59 10° SE visible
26 Apr 8.2 18:24:40 10° SW 18:36:42 81° NW 18:48:14 10° NE visible
26 Apr 9.5 20:40:46 10° W 20:51:07 34° NNW 21:01:06 10° NE visible
26 Apr 9.7 22:58:47 10° NW 23:08:04 27° N 23:17:03 10° ENE visible
27 Apr 8.8 01:12:58 10° NW 01:23:52 52° NE 01:34:24 10° ESE visible
27 Apr 8.1 17:48:35 10° SSW 18:00:38 84° ESE 18:12:09 10° NE visible
27 Apr 9.3 20:03:36 10° W 20:14:24 39° NNW 20:24:48 10° NE visible
27 Apr 9.8 22:21:53 10° NW 22:31:04 26° N 22:39:57 10° ENE visible
28 Apr 9.0 00:36:48 10° NW 00:47:23 43° NE 00:57:38 10° ESE visible
28 Apr 9.1 19:26:35 10° WSW 19:37:48 46° NW 19:48:36 10° NE visible
28 Apr 9.8 21:44:48 10° WNW 21:54:03 26° N 22:03:01 10° NE visible
29 Apr 9.3 00:00:32 10° NW 00:10:46 37° NNE 00:20:41 10° E visible
29 Apr 8.0 02:13:24 10° NW 02:24:34 86° WSW 02:35:29 10° SSE visible
29 Apr 8.8 18:49:45 10° WSW 19:01:21 54° NW 19:12:28 10° NE visible
29 Apr 9.7 21:07:35 10° WNW 21:17:04 28° NNW 21:26:15 10° NE visible
29 Apr 9.4 23:24:10 10° NW 23:34:03 33° NNE 23:43:36 10° E visible
30 Apr 8.1 01:37:17 10° NW 01:48:30 78° NE 01:59:24 10° SE visible
30 Apr 8.6 18:13:09 10° SW 18:25:00 65° NW 18:36:23 10° NE visible
30 Apr 9.7 20:30:18 10° WNW 20:40:08 30° NNW 20:49:39 10° NE visible
30 Apr 9.6 22:47:39 10° NW 22:57:12 29° NNE 23:06:26 10° ENE visible
01 May 8.4 01:01:11 10° NW 01:12:18 64° NE 01:23:06 10° SE visible
01 May 9.6 19:53:02 10° W 20:03:18 33° NNW 20:13:13 10° NE visible
01 May 9.7 22:10:58 10° NW 22:20:16 27° N 22:29:16 10° ENE visible
